Regional Weather Roundup
Issued by NWS Jackson, KY

Home | Current Version | Previous Version | Text Only | Print | Product List | Glossary On
Versions: 1 2 3 4 5 6 7 8 9 10 11 12 13 14 15 16 17 18 19 20 21 22 23 24 25 26 27 28 29 30 31 32 33 34 35 36 37 38 39 40 41 42 43 44 45 46 47 48 49 50
000
ASUS43 KJKL 291810
RWRJKL

EAST KENTUCKY HOURLY WEATHER ROUNDUP
NATIONAL WEATHER SERVICE JACKSON KY
200 PM EDT SAT AUG 29 2015

NOTE: "FAIR" INDICATES FEW OR NO CLOUDS BELOW 12,000 FEET WITH
NO SIGNIFICANT WEATHER AND/OR OBSTRUCTIONS TO VISIBILITY.

* THESE REPORTS ARE NOT UNDER NWS QUALITY CONTROL AND MAY NOT
  REPORT WEATHER SUCH AS PRECIPITATION AND FOG.

KYZ079-080-083-085-087-088-110-112-115-119-120-291900
...EASTERN KENTUCKY...

CITY           SKY/WX    TMP DP  RH WIND       PRES   REMARKS
JACKSON        MOSUNNY   79  66  64 VRB5      30.20F
6HR MIN TEMP:  67; 6HR MAX TEMP:  81;

LONDON           N/A     83  63  50 SW6       30.19F
6HR MIN TEMP:  64; 6HR MAX TEMP:  84;

SOMERSET*      SUNNY     81  64  57 S7        30.18F
MONTICELLO*    MOSUNNY   85  69  58 S7        30.18F
6HR MIN TEMP:  63; 6HR MAX TEMP:  85;

WILLIAMSBURG*  MOSUNNY   81  66  61 E3        30.19
MIDDLESBORO*   MOSUNNY   83  64  53 S3        30.21F
6HR MIN TEMP:  60; 6HR MAX TEMP:  83;

HARLAN APT*      N/A     81  63  54 MISG      30.22F
HAZARD APT*    CLEAR     84  64  51 CALM      30.20F
BLACK MTN*       N/A     72  57  60 NW3         N/A
PIKEVILLE APT* PTSUNNY   79  64  61 CALM      30.21F
BIG SANDY*     PTCLDY    80  65  59 SW6       30.20F
6HR MIN TEMP:  66; 6HR MAX TEMP:  82;

MOREHEAD APT*  PTCLDY    82  64  54 SW8       30.19F
$$

KYZ035-036-041-042-044-050-067-078-099-291900
...CENTRAL KENTUCKY...

CITY           SKY/WX    TMP DP  RH WIND       PRES   REMARKS
MT STERLING*   MOSUNNY  N/A N/A N/A SW5       30.18F
FLEMING/MASON* CLOUDY    82  68  61 SW8       30.17F
DANVILLE*      MOSUNNY   86  68  54 S9        30.17F
RICHMOND*      PTSUNNY   84  64  51 SW9       30.17F
LEXINGTON      PTSUNNY   85  66  53 S12       30.15F
6HR MIN TEMP:  67; 6HR MAX TEMP:  85;

FRANKFORT      MOSUNNY   84  67  56 VRB6      30.13F
6HR MIN TEMP:  66; 6HR MAX TEMP:  84;

$$

KYZ091>093-OHZ055-061-077-WVZ005-015-034-035-042-291900
...SOUTHERN OHIO/WEST VIRGINIA...

CITY           SKY/WX    TMP DP  RH WIND       PRES   REMARKS
COVINGTON      PTSUNNY   85  67  54 SW9       30.12F
COLUMBUS       PTSUNNY   82  65  56 S12       30.12F
DAYTON         CLOUDY    82  65  56 W12       30.13F
WILMINGTON     MOSUNNY   84  65  52 W13       30.13F
HUNTINGTON     PTSUNNY   81  65  58 VRB6      30.16F
CHARLESTON     PTSUNNY   82  63  52 VRB3      30.17F
PINEVILLE*     PTSUNNY   78  65  63 MISG      30.29F
BECKLEY        PTSUNNY   78  58  49 NW6       30.26F
BLUEFIELD      PTSUNNY   79  58  48 NW8       30.29F
$$

VAZ002-007-008-TNZ017-027-036-066-071-291900
...SOUTHWEST VIRGINIA/EAST TENNESSEE...

CITY           SKY/WX    TMP DP  RH WIND       PRES   REMARKS
WISE*          MOSUNNY   79  54  41 CALM      30.30S
JONESVILLE*    PTCLDY    82  32  16 CALM      30.24F
ABINGDON*      CLOUDY    78  57  47 CALM      30.26F
BRISTOL        PTSUNNY   81  59  47 N3        30.23F
KNOXVILLE      PTSUNNY   89  71  55 VRB3      30.18F HX  95
OAK RIDGE      PTSUNNY   83  64  52 S6        30.20F
CROSSVILLE     PTSUNNY   80  66  62 VRB7      30.21F
NASHVILLE      PTSUNNY   86  68  54 VRB5      30.11F
$$

...KEY TO REMARKS...
VSB - VISIBILITY IN MILES
WCI - WIND CHILL INDEX
HX  - HEAT INDEX

$$


USA.gov is the U.S. government's official web portal to all federal, state and local government web resources and services.